sat.trackr.live / text

‹ back to catalog

STARLINK-32477

NORAD 62038 · 2024-216G

PAYLOAD ACTIVE UNKNOWN

§ Identity

Operator
Country
US
Launch date
2024-11-21
Launch site
AFETR
Launch vehicle
Mass (kg)
RCS (m²)

Purposes: comms

External: N2YO · Heavens-Above · Gunter

§ Orbital elements

Epoch: 2026-07-29T04:22:24.769632Z

Period
88.63 min
Inclination
42.9859°
Eccentricity
0.0032382
Mean motion
16.24787158 rev/d
Perigee alt
185.3 km
Apogee alt
227.9 km
Semi-major
6,584.7 km
B*
5.5650e-3
RAAN
122.7646°
Arg perigee
214.2211°
Mean anomaly
145.6589°
Rev number
9,499

§ Raw data

STARLINK-324771 62038U 24216G   26210.18223113  .19175325  86043-5  55650-2 0  99982 62038  42.9859 122.7646 0032382 214.2211 145.6589 16.24787158 94995

JSON: /api/v1/satellites/62038 · /tle

For live sub-satellite position, see the globe view (requires WebGL).

§ Visibility from observer

Set your observer location to see the next 7 days of passes ≥ 10°. The values pass through the URL so the page stays shareable.

No JS? Fill the form by hand. The geolocation button needs JavaScript.